Regional Weather Roundup
Issued by NWS Newport/Morehead, NC

Current Version | Previous Version | Text Only | Print | Product List | Glossary On
Versions: 1 2 3 4 5 6 7 8 9 10 11 12 13 14 15 16 17 18 19 20 21 22 23 24 25 26 27 28 29 30 31 32 33 34 35 36 37 38 39 40 41 42 43 44 45 46 47 48 49 50
309 ASUS42 KMHX 171513 RWRMHX WEATHER ROUNDUP FOR EASTERN NORTH CAROLINA NATIONAL WEATHER SERVICE NEWPORT/MOREHEAD CITY NC 1000 AM EST FRI NOV 17 2017 NOTE: "FAIR" INDICATES FEW OR NO CLOUDS BELOW 12,000 FEET WITH NO SIGNIFICANT WEATHER AND/OR OBSTRUCTIONS TO VISIBILITY NCZ015>017-031-032-045>047-102-103-171600- NORTH COAST CITY SKY/WX TMP DP RH WIND PRES REMARKS EDENTON SUNNY 49 34 56 N13G24 30.23S ELIZABETH CITY SUNNY 49 34 56 N13 30.23R KITTY HAWK SUNNY 48 34 59 NW6 30.19S MANTEO SUNNY 49 35 59 N10G17 30.21S $$ NCZ045>047-081-094-103-104-171600- CENTRAL COAST CITY SKY/WX TMP DP RH WIND PRES REMARKS FRISCO SUNNY 52 42 69 N12G24 30.20R $$ NCZ095-097-098-100-101-171600- SOUTHERN COAST CITY SKY/WX TMP DP RH WIND PRES REMARKS BEAUFORT SUNNY 51 37 58 N16G25 30.22R CEDAR ISLAND NOT AVBL JACKSONVILLE SUNNY 49 35 58 N12 30.23S PINEY ISLAND NOT AVBL WILMINGTON SUNNY 51 34 52 N15 30.23S $$ NCZ011>013-027>030-043-044-078>080-089-090>093-098-171600- COASTAL PLAIN CITY SKY/WX TMP DP RH WIND PRES REMARKS AHOSKIE SUNNY 46 31 55 N7G17 30.24S CLINTON SUNNY 48 34 59 NE10 30.26S ELIZABETHTOWN NOT AVBL GOLDSBORO SUNNY 48 31 51 NE8 30.23S GREENVILLE SUNNY 46 32 57 NE7 30.25S HAVELOCK NOT AVBL KENANSVILLE SUNNY 48 32 53 N9 30.25S KINSTON SUNNY 48 34 57 NE9 30.25S NEW BERN SUNNY 47 36 65 NE9 30.25R RICHLANDS SUNNY 48 34 58 N10 30.24S ROCKY MOUNT SUNNY 47 33 58 N8 30.25S WASHINGTON SUNNY 48 34 58 N8 30.24R WHITEVILLE SUNNY 49 33 54 NE14 30.23S $$ AMZ130-135-150-152-154-156-158-170-250-252-270-ANZ085-086-088-633-658-670-171600- MARINE OBSERVATIONS STATION/POSITION TIME TEMP WIND PRES WAVE SWELL AIR SEA DIR/SP/G HT/PER HT/PER (UTC) (F) (DEG/KT/KT) (MB) (FT/S) (FT/S) CHESAPEAKE LIGHT NOT AVBL 64 E VA BEACH 1450 50 61 330/ 17/ 23 1021.6 8/ 7 5/11 DUCK 1448 46 57 320/ 12/ 16 1022.0 2 E DUCK 1500 59 N/A 5/ 7 2/13 OREGON INLET 1436 50 58 340/ 10/ 14 1022.1 13E OREGON INLT 1448 62 N/A 7/ 8 7/ 8 HATTERAS CG 1448 49 59 10/ 18/ 21 1022.4 DIAMOND BUOY 1500 53 65 350/ 19/ 25 1022.3 CAPE LOOKOUT 1500 50 10/ 17/ 22 1023.4 BEAUFORT LAB 1448 48 59 20/ 15/ 19 1023.2 30 SE NEW RVR IN 1408 53 71 50/ 17/ 23 1022.3 30 SE NEW RVR IN 1500 71 N/A 6/ 5 2/12 27 SE WRIGHTSVLE 1408 55 68 50/ 21/ 29 1022.3 5 SE WRIGHTSVLE 1408 51 64 40/ 17/ 25 1022.3 225 S CAPE HAT 1450 70 77 30/ 16/ 21 1018.2 7/ 6 5/12 41 SE CHARLESTON 1450 64 75 40/ 19/ 25 1021.3 6/ 6 2/11 $$

USA.gov is the U.S. government's official web portal to all federal, state and local government web resources and services.